Tracking 19564 objects as of 18-Mar-2019
HD Live streaming from Space Station
objects crossing your sky now

TDRS 1

Track TDRS 1 now!
TDRS 1 is classified as:


NORAD ID: 13969
Int'l Code: 1983-026B
Perigee: 36,165.4 km
Apogee: 36,288.6 km
Inclination: 12.9 °
Period: 1,458.3 minutes
Semi major axis: 42598 km
RCS: 22.1577 m2 (large)
Launch date: April 4, 1983
Source: United States (US)
Launch site: AIR FORCE EASTERN TEST RANGE (AFETR)

Very limited use.
aabbcc
Your satellite tracking list
Your tracking list is empty




NASA's NSSDC Master Catalog

Two Line Element Set (TLE):
1 13969U 83026B   19076.00535786 -.00000244  00000-0  00000+0 0  9994
2 13969  12.8868 338.6979 0014460 205.2975 330.4043  0.98745797104191
Source of the keplerian elements: AFSPC